.
WxDataArchive / Data Records for 2009-03-02
2009-03-01 March 2009 2009-03-03

Data Records for Monday, 02 March 2009

Time	Temp	Chill	HIndex	Humid	Dewpt	 Wind 	HiWind	WindDir	Rain 	Barom 
-----	----	-----	------	-----	-----	------	------	-------	-----	----- 
00:00	15.6	15.6	15.6	52	1.1	1	3	45	0.00	30.468 
00:05	15.4	15.4	15.4	53	1.4	1	3	22	0.00	30.472 
00:10	15.4	15.4	15.4	53	1.4	0	1	22	0.00	30.470 
00:15	15.2	15.2	15.2	54	1.6	0	2	0	0.00	30.468 
00:20	15.2	15.2	15.2	54	1.6	0	2	0	0.00	30.469 
00:25	15.1	15.1	15.1	55	1.9	0	2	112	0.00	30.468 
00:30	14.9	14.9	14.9	56	2.1	0	1	68	0.00	30.470 
00:35	14.8	14.8	14.8	58	2.7	0	2	90	0.00	30.470 
00:40	14.8	14.8	14.8	59	3.1	1	4	90	0.00	30.470 
00:45	14.6	14.6	14.6	59	2.9	0	4	180	0.00	30.471 
00:50	14.4	14.4	14.4	59	2.7	0	2	22	0.00	30.467 
00:55	14.4	14.4	14.4	59	2.7	1	6	315	0.00	30.470 
01:00	14.3	14.3	14.3	58	2.3	1	6	112	0.00	30.471 
01:05	14.3	14.3	14.3	57	1.9	1	5	22	0.00	30.473 
01:10	14.3	14.3	14.3	57	1.9	1	5	22	0.00	30.472 
01:15	14.3	14.3	14.3	57	1.9	1	5	22	0.00	30.472 
01:20	14.1	14.1	14.1	57	1.7	1	4	45	0.00	30.472 
01:25	14.1	14.1	14.1	57	1.7	1	7	45	0.00	30.473 
01:30	14.0	14.0	14.0	57	1.6	1	5	0	0.00	30.474 
01:35	14.0	14.0	14.0	58	2.0	1	5	22	0.00	30.475 
01:40	13.8	13.8	13.8	58	1.8	1	8	45	0.00	30.476 
01:45	13.8	13.8	13.8	57	1.4	2	7	90	0.00	30.475 
01:50	13.6	13.6	13.6	58	1.6	1	5	248	0.00	30.476 
01:55	13.6	13.6	13.6	57	1.2	1	5	90	0.00	30.477 
02:00	13.5	13.5	13.5	56	0.8	1	3	45	0.00	30.480 
02:05	13.5	13.5	13.5	56	0.8	1	4	22	0.00	30.479 
02:10	13.5	13.5	13.5	56	0.8	1	4	158	0.00	30.477 
02:15	13.3	13.3	13.3	56	0.6	1	9	112	0.00	30.481 
02:20	13.3	13.3	13.3	56	0.6	1	5	68	0.00	30.482 
02:25	13.1	13.1	13.1	56	0.4	1	4	45	0.00	30.484 
02:30	13.1	13.1	13.1	56	0.4	1	6	0	0.00	30.487 
02:35	12.9	12.9	12.9	56	0.2	1	6	68	0.00	30.488 
02:40	12.9	12.9	12.9	57	0.6	1	5	112	0.00	30.489 
02:45	12.8	12.8	12.8	57	0.5	1	3	22	0.00	30.490 
02:50	12.8	12.8	12.8	57	0.5	1	4	68	0.00	30.491 
02:55	12.8	12.8	12.8	57	0.5	2	6	112	0.00	30.491 
03:00	12.6	12.6	12.6	57	0.3	1	3	90	0.00	30.491 
03:05	12.6	12.6	12.6	58	0.7	1	5	112	0.00	30.493 
03:10	12.6	12.6	12.6	58	0.7	1	3	112	0.00	30.493 
03:15	12.4	12.4	12.4	59	0.8	0	3	22	0.00	30.494 
03:20	12.3	12.3	12.3	60	1.1	0	3	270	0.00	30.495 
03:25	12.1	12.1	12.1	61	1.3	0	1	45	0.00	30.496 
03:30	11.9	11.9	11.9	61	1.1	1	4	90	0.00	30.502 
03:35	11.9	11.9	11.9	61	1.1	0	2	90	0.00	30.504 
03:40	11.9	11.9	11.9	62	1.4	0	1	90	0.00	30.506 
03:45	11.7	11.7	11.7	62	1.2	0	2	90	0.00	30.507 
03:50	11.7	11.7	11.7	62	1.2	0	3	90	0.00	30.508 
03:55	11.6	11.6	11.6	63	1.5	0	1	292	0.00	30.508 
04:00	11.6	11.6	11.6	63	1.5	0	2	292	0.00	30.508 
04:05	11.4	11.4	11.4	64	1.6	0	1	292	0.00	30.508 
04:10	11.2	11.2	11.2	64	1.4	0	1	292	0.00	30.510 
04:15	11.1	11.1	11.1	64	1.3	0	1	292	0.00	30.510 
04:20	11.1	11.1	11.1	64	1.3	0	1	292	0.00	30.510 
04:25	11.1	11.1	11.1	63	1.0	0	2	90	0.00	30.509 
04:30	11.1	11.1	11.1	63	1.0	0	2	90	0.00	30.509 
04:35	10.9	10.9	10.9	63	0.8	0	1	90	0.00	30.511 
04:40	10.9	10.9	10.9	63	0.8	0	4	22	0.00	30.512 
04:45	10.9	10.9	10.9	63	0.8	0	2	0	0.00	30.513 
04:50	10.9	10.9	10.9	63	0.8	0	2	45	0.00	30.512 
04:55	10.7	10.7	10.7	63	0.6	0	1	45	0.00	30.514 
05:00	10.7	10.7	10.7	63	0.6	0	2	45	0.00	30.514 
05:05	10.5	10.5	10.5	63	0.4	0	1	45	0.00	30.516 
05:10	10.5	10.5	10.5	64	0.8	0	1	45	0.00	30.518 
05:15	10.4	10.4	10.4	64	0.7	0	1	45	0.00	30.515 
05:20	10.2	10.2	10.2	64	0.5	0	1	45	0.00	30.517 
05:25	10.2	10.2	10.2	64	0.5	0	1	45	0.00	30.518 
05:30	10.2	10.2	10.2	64	0.5	0	2	22	0.00	30.517 
05:35	10.2	10.2	10.2	64	0.5	0	2	22	0.00	30.519 
05:40	10.0	10.0	10.0	64	0.3	0	2	0	0.00	30.519 
05:45	10.0	10.0	10.0	64	0.3	0	1	338	0.00	30.519 
05:50	10.0	10.0	10.0	64	0.3	0	3	0	0.00	30.521 
05:55	9.9	9.9	9.9	64	0.2	0	2	22	0.00	30.524 
06:00	9.9	9.9	9.9	65	0.5	0	1	22	0.00	30.526 
06:05	9.7	9.7	9.7	65	0.3	0	1	0	0.00	30.530 
06:10	9.7	9.7	9.7	65	0.3	0	3	22	0.00	30.529 
06:15	9.7	9.7	9.7	65	0.3	0	1	135	0.00	30.530 
06:20	9.7	9.7	9.7	64	0.0	0	3	45	0.00	30.530 
06:25	9.7	9.7	9.7	64	0.0	0	3	0	0.00	30.529 
06:30	9.7	9.7	9.7	64	0.0	0	4	0	0.00	30.530 
06:35	9.7	9.7	9.7	64	0.0	0	1	22	0.00	30.532 
06:40	9.5	9.5	9.5	64	-0.2	1	4	45	0.00	30.531 
06:45	9.5	9.5	9.5	64	-0.2	0	3	45	0.00	30.535 
06:50	9.5	9.5	9.5	64	-0.2	1	3	22	0.00	30.534 
06:55	9.3	9.3	9.3	64	-0.4	0	2	22	0.00	30.535 
07:00	9.3	9.3	9.3	65	-0.0	0	1	22	0.00	30.536 
07:05	9.2	9.2	9.2	65	-0.1	1	5	270	0.00	30.540 
07:10	9.2	9.2	9.2	65	-0.1	0	3	0	0.00	30.538 
07:15	9.2	9.2	9.2	65	-0.1	1	3	45	0.00	30.541 
07:20	9.2	9.2	9.2	65	-0.1	0	2	0	0.00	30.542 
07:25	9.2	9.2	9.2	65	-0.1	1	4	90	0.00	30.544 
07:30	9.2	9.2	9.2	65	-0.1	0	1	315	0.00	30.540 
07:35	9.3	9.3	9.3	65	-0.0	0	2	338	0.00	30.538 
07:40	9.3	9.3	9.3	65	-0.0	0	3	22	0.00	30.537 
07:45	9.5	9.5	9.5	65	0.1	1	2	0	0.00	30.541 
07:50	9.7	9.7	9.7	65	0.3	0	2	0	0.00	30.546 
07:55	9.9	9.9	9.9	64	0.2	1	5	135	0.00	30.546 
08:00	10.0	10.0	10.0	64	0.3	1	3	135	0.00	30.548 
08:05	10.2	10.2	10.2	64	0.5	0	3	90	0.00	30.550 
08:10	10.4	10.4	10.4	63	0.3	1	3	22	0.00	30.549 
08:15	10.5	10.5	10.5	63	0.4	1	4	90	0.00	30.549 
08:20	10.9	10.9	10.9	62	0.5	1	5	22	0.00	30.549 
08:25	11.1	11.1	11.1	62	0.7	1	6	45	0.00	30.549 
08:30	11.2	11.2	11.2	62	0.8	1	6	45	0.00	30.550 
08:35	11.6	11.6	11.6	61	0.8	1	4	45	0.00	30.550 
08:40	11.7	11.7	11.7	61	0.9	1	3	68	0.00	30.548 
08:45	12.1	12.1	12.1	60	0.9	2	6	90	0.00	30.547 
08:50	12.6	12.6	12.6	59	1.0	1	5	45	0.00	30.547 
08:55	12.9	12.9	12.9	59	1.3	1	6	90	0.00	30.548 
09:00	13.3	13.3	13.3	59	1.7	1	6	90	0.00	30.548 
09:05	13.5	13.5	13.5	58	1.5	2	5	90	0.00	30.550 
09:10	13.6	13.6	13.6	57	1.2	2	6	45	0.00	30.550 
09:15	13.8	13.8	13.8	57	1.4	2	9	0	0.00	30.549 
09:20	14.0	14.0	14.0	57	1.6	1	3	22	0.00	30.550 
09:25	14.3	14.3	14.3	56	1.5	2	5	68	0.00	30.548 
09:30	14.4	14.4	14.4	55	1.2	2	7	22	0.00	30.548 
09:35	14.8	14.8	14.8	55	1.6	3	10	112	0.00	30.548 
09:40	14.9	14.9	14.9	55	1.7	2	6	90	0.00	30.547 
09:45	15.4	15.4	15.4	55	2.2	1	4	90	0.00	30.547 
09:50	16.1	16.1	16.1	54	2.4	2	6	90	0.00	30.548 
09:55	15.9	15.9	15.9	53	1.8	2	5	68	0.00	30.546 
10:00	16.1	16.1	16.1	53	2.0	2	9	45	0.00	30.547 
10:05	15.9	15.9	15.9	52	1.4	2	9	112	0.00	30.545 
10:10	16.2	16.2	16.2	53	2.1	1	10	315	0.00	30.546 
10:15	16.5	16.5	16.5	51	1.6	2	11	90	0.00	30.548 
10:20	16.7	16.7	16.7	51	1.8	2	4	112	0.00	30.547 
10:25	17.2	17.2	17.2	52	2.6	1	5	0	0.00	30.547 
10:30	17.3	17.3	17.3	50	1.9	2	6	22	0.00	30.549 
10:35	17.2	17.2	17.2	49	1.4	2	7	90	0.00	30.549 
10:40	17.2	17.2	17.2	51	2.2	1	5	90	0.00	30.547 
10:45	17.8	17.8	17.8	50	2.3	2	4	45	0.00	30.546 
10:50	17.8	17.8	17.8	49	1.9	1	3	0	0.00	30.547 
10:55	17.5	17.5	17.5	49	1.6	2	6	112	0.00	30.544 
11:00	17.3	17.3	17.3	50	1.9	1	5	90	0.00	30.545 
11:05	18.0	18.0	18.0	51	3.0	1	7	22	0.00	30.545 
11:10	18.3	18.3	18.3	50	2.8	2	6	68	0.00	30.546 
11:15	18.4	18.4	18.4	49	2.5	1	7	22	0.00	30.545 
11:20	18.1	18.1	18.1	51	3.1	1	4	22	0.00	30.548 
11:25	18.3	18.3	18.3	50	2.8	2	7	315	0.00	30.545 
11:30	18.3	18.3	18.3	51	3.2	1	5	90	0.00	30.551 
11:35	18.8	18.8	18.8	48	2.4	2	6	45	0.00	30.550 
11:40	18.8	18.8	18.8	50	3.3	1	4	45	0.00	30.550 
11:45	18.1	18.1	18.1	49	2.2	1	7	68	0.00	30.547 
11:50	18.9	18.9	18.9	49	2.9	2	7	45	0.00	30.546 
11:55	19.5	19.5	19.5	50	3.9	1	7	45	0.00	30.543 
12:00	20.0	20.0	20.0	46	2.6	2	5	90	0.00	30.541 
12:05	19.4	19.4	19.4	47	2.5	1	6	45	0.00	30.543 
12:10	19.2	19.2	19.2	48	2.8	1	5	22	0.00	30.546 
12:15	19.2	19.2	19.2	48	2.8	1	5	45	0.00	30.546 
12:20	19.2	19.2	19.2	47	2.3	2	7	22	0.00	30.547 
12:25	19.7	19.7	19.7	48	3.2	2	6	338	0.00	30.549 
12:30	19.7	19.7	19.7	47	2.8	2	10	112	0.00	30.544 
12:35	19.7	19.7	19.7	45	1.8	2	5	90	0.00	30.542 
12:40	20.2	20.2	20.2	46	2.8	3	11	22	0.00	30.542 
12:45	20.3	20.3	20.3	48	3.8	3	7	45	0.00	30.539 
12:50	20.2	14.4	20.2	46	2.8	4	10	112	0.00	30.535 
12:55	20.6	20.6	20.6	48	4.1	1	3	68	0.00	30.534 
13:00	20.8	20.8	20.8	46	3.3	1	3	0	0.00	30.532 
13:05	20.0	20.0	20.0	45	2.1	2	6	45	0.00	30.530 
13:10	20.2	20.2	20.2	46	2.8	1	4	338	0.00	30.527 
13:15	20.6	20.6	20.6	46	3.1	2	11	0	0.00	30.526 
13:20	21.1	21.1	21.1	46	3.6	2	10	45	0.00	30.524 
13:25	21.1	21.1	21.1	45	3.1	1	5	45	0.00	30.521 
13:30	21.1	21.1	21.1	45	3.1	2	5	68	0.00	30.516 
13:35	21.4	21.4	21.4	45	3.4	1	4	338	0.00	30.514 
13:40	21.4	21.4	21.4	46	3.9	1	5	112	0.00	30.512 
13:45	21.6	21.6	21.6	45	3.6	1	5	0	0.00	30.512 
13:50	21.4	21.4	21.4	44	2.9	1	3	292	0.00	30.513 
13:55	21.6	21.6	21.6	46	4.1	2	6	68	0.00	30.509 
14:00	21.4	21.4	21.4	45	3.4	1	5	45	0.00	30.511 
14:05	21.8	21.8	21.8	43	2.8	2	9	22	0.00	30.511 
14:10	21.8	21.8	21.8	45	3.8	2	6	90	0.00	30.509 
14:15	22.1	22.1	22.1	44	3.6	2	6	45	0.00	30.508 
14:20	22.2	22.2	22.2	43	3.1	1	5	22	0.00	30.508 
14:25	22.2	22.2	22.2	45	4.1	2	6	90	0.00	30.506 
14:30	22.4	22.4	22.4	46	4.8	1	3	45	0.00	30.505 
14:35	22.9	22.9	22.9	43	3.8	2	9	112	0.00	30.499 
14:40	22.9	22.9	22.9	43	3.8	1	4	45	0.00	30.496 
14:45	23.0	23.0	23.0	44	4.4	2	5	270	0.00	30.494 
14:50	23.3	23.3	23.3	44	4.6	1	7	68	0.00	30.495 
14:55	23.2	23.2	23.2	43	4.1	1	5	45	0.00	30.493 
15:00	23.3	23.3	23.3	42	3.6	1	3	45	0.00	30.493 
15:05	23.2	23.2	23.2	42	3.5	1	5	68	0.00	30.494 
15:10	23.3	23.3	23.3	40	2.6	1	5	270	0.00	30.493 
15:15	23.0	23.0	23.0	39	1.8	1	4	292	0.00	30.494 
15:20	23.0	23.0	23.0	43	3.9	1	5	315	0.00	30.492 
15:25	22.9	22.9	22.9	41	2.8	1	4	292	0.00	30.490 
15:30	22.1	22.1	22.1	40	1.5	1	3	315	0.00	30.491 
15:35	22.5	22.5	22.5	41	2.4	2	5	68	0.00	30.491 
15:40	22.7	22.7	22.7	40	2.0	2	4	45	0.00	30.488 
15:45	22.5	22.5	22.5	42	2.9	1	3	22	0.00	30.491 
15:50	22.9	22.9	22.9	41	2.8	1	3	45	0.00	30.489 
15:55	23.0	23.0	23.0	40	2.3	2	10	22	0.00	30.483 
16:00	23.2	23.2	23.2	40	2.5	1	6	45	0.00	30.484 
16:05	23.5	23.5	23.5	43	4.3	0	3	90	0.00	30.485 
16:10	23.8	23.8	23.8	41	3.6	2	6	45	0.00	30.483 
16:15	23.6	23.6	23.6	38	1.8	2	5	22	0.00	30.485 
16:20	23.2	23.2	23.2	40	2.5	1	5	0	0.00	30.485 
16:25	23.0	23.0	23.0	40	2.3	2	6	112	0.00	30.482 
16:30	23.0	23.0	23.0	38	1.2	2	10	112	0.00	30.483 
16:35	22.9	22.9	22.9	38	1.1	1	2	45	0.00	30.481 
16:40	23.2	23.2	23.2	41	3.0	1	4	68	0.00	30.484 
16:45	23.3	23.3	23.3	40	2.6	1	4	315	0.00	30.483 
16:50	23.2	23.2	23.2	38	1.4	1	6	315	0.00	30.486 
16:55	23.0	23.0	23.0	40	2.3	1	3	0	0.00	30.485 
17:00	22.7	22.7	22.7	39	1.5	1	4	22	0.00	30.486 
17:05	22.5	22.5	22.5	40	1.9	0	2	0	0.00	30.485 
17:10	22.5	22.5	22.5	39	1.3	1	3	45	0.00	30.487 
17:15	22.5	22.5	22.5	39	1.3	1	3	112	0.00	30.492 
17:20	22.4	22.4	22.4	38	0.7	1	3	248	0.00	30.490 
17:25	22.2	22.2	22.2	39	1.1	1	3	22	0.00	30.494 
17:30	22.1	22.1	22.1	39	1.0	0	2	22	0.00	30.495 
17:35	22.1	22.1	22.1	40	1.5	0	1	22	0.00	30.496 
17:40	21.9	21.9	21.9	38	0.2	1	4	270	0.00	30.497 
17:45	21.8	21.8	21.8	38	0.1	1	3	22	0.00	30.496 
17:50	21.6	21.6	21.6	38	-0.0	0	3	338	0.00	30.497 
17:55	21.4	21.4	21.4	38	-0.2	0	2	338	0.00	30.496 
18:00	21.3	21.3	21.3	38	-0.3	0	2	338	0.00	30.499 
18:05	21.3	21.3	21.3	38	-0.3	0	2	338	0.00	30.499 
18:10	21.1	21.1	21.1	39	0.1	0	3	292	0.00	30.501 
18:15	21.0	21.0	21.0	39	-0.0	0	2	22	0.00	30.501 
18:20	20.6	20.6	20.6	40	0.1	0	1	22	0.00	30.501 
18:25	20.5	20.5	20.5	39	-0.5	0	2	22	0.00	30.504 
18:30	20.3	20.3	20.3	40	-0.1	0	2	22	0.00	30.508 
18:35	20.2	20.2	20.2	39	-0.7	0	3	270	0.00	30.512 
18:40	20.2	20.2	20.2	40	-0.2	0	3	0	0.00	30.515 
18:45	20.0	20.0	20.0	40	-0.4	0	2	0	0.00	30.516 
18:50	19.9	19.9	19.9	41	0.0	0	1	0	0.00	30.516 
18:55	19.7	19.7	19.7	42	0.4	0	1	0	0.00	30.519 
19:00	19.5	19.5	19.5	42	0.2	0	2	0	0.00	30.522 
19:05	19.4	19.4	19.4	42	0.1	0	1	0	0.00	30.523 
19:10	19.2	19.2	19.2	43	0.4	0	1	0	0.00	30.524 
19:15	19.1	19.1	19.1	44	0.8	0	1	0	0.00	30.527 
19:20	18.8	18.8	18.8	45	1.0	0	1	0	0.00	30.526 
19:25	18.6	18.6	18.6	45	0.8	0	0	---	0.00	30.529 
19:30	18.4	18.4	18.4	46	1.1	0	0	---	0.00	30.530 
19:35	18.3	18.3	18.3	46	1.0	0	1	0	0.00	30.532 
19:40	18.1	18.1	18.1	47	1.3	0	2	0	0.00	30.531 
19:45	18.1	18.1	18.1	47	1.3	0	1	0	0.00	30.531 
19:50	18.0	18.0	18.0	48	1.7	0	1	0	0.00	30.531 
19:55	18.0	18.0	18.0	48	1.7	0	0	---	0.00	30.531 
20:00	17.8	17.8	17.8	49	1.9	0	1	0	0.00	30.533 
20:05	17.7	17.7	17.7	49	1.8	0	1	0	0.00	30.530 
20:10	17.7	17.7	17.7	49	1.8	0	1	0	0.00	30.531 
20:15	17.5	17.5	17.5	50	2.1	0	0	---	0.00	30.531 
20:20	17.3	17.3	17.3	50	1.9	0	0	---	0.00	30.532 
20:25	17.2	17.2	17.2	50	1.8	0	1	0	0.00	30.531 
20:30	17.0	17.0	17.0	51	2.0	0	1	0	0.00	30.531 
20:35	17.0	17.0	17.0	52	2.4	0	0	---	0.00	30.532 
20:40	16.9	16.9	16.9	52	2.4	0	1	0	0.00	30.535 
20:45	16.7	16.7	16.7	52	2.2	0	1	0	0.00	30.539 
20:50	16.5	16.5	16.5	52	2.0	0	0	---	0.00	30.540 
20:55	16.5	16.5	16.5	53	2.4	0	0	---	0.00	30.540 
21:00	16.4	16.4	16.4	53	2.3	0	1	0	0.00	30.545 
21:05	16.2	16.2	16.2	54	2.5	0	1	0	0.00	30.542 
21:10	16.2	16.2	16.2	54	2.5	0	1	0	0.00	30.541 
21:15	16.2	16.2	16.2	54	2.5	0	1	0	0.00	30.540 
21:20	16.2	16.2	16.2	55	2.9	0	0	---	0.00	30.538 
21:25	16.1	16.1	16.1	55	2.8	0	1	0	0.00	30.538 
21:30	15.9	15.9	15.9	55	2.6	0	2	135	0.00	30.536 
21:35	15.9	15.9	15.9	56	3.0	0	1	135	0.00	30.537 
21:40	15.7	15.7	15.7	56	2.8	0	0	---	0.00	30.538 
21:45	15.6	15.6	15.6	56	2.7	0	1	135	0.00	30.540 
21:50	15.6	15.6	15.6	56	2.7	0	2	135	0.00	30.542 
21:55	15.7	15.7	15.7	56	2.8	0	2	68	0.00	30.542 
22:00	15.7	15.7	15.7	55	2.4	0	1	68	0.00	30.542 
22:05	15.6	15.6	15.6	56	2.7	0	1	68	0.00	30.541 
22:10	15.4	15.4	15.4	56	2.5	0	1	68	0.00	30.539 
22:15	15.2	15.2	15.2	56	2.4	0	1	68	0.00	30.541 
22:20	15.2	15.2	15.2	56	2.4	0	1	68	0.00	30.540 
22:25	15.1	15.1	15.1	57	2.6	0	0	---	0.00	30.540 
22:30	15.1	15.1	15.1	58	3.0	0	1	68	0.00	30.542 
22:35	14.8	14.8	14.8	58	2.7	0	1	68	0.00	30.544 
22:40	14.6	14.6	14.6	58	2.5	0	0	---	0.00	30.543 
22:45	14.4	14.4	14.4	58	2.4	0	0	---	0.00	30.546 
22:50	14.3	14.3	14.3	59	2.6	0	0	---	0.00	30.547 
22:55	14.1	14.1	14.1	59	2.4	0	0	---	0.00	30.548 
23:00	14.0	14.0	14.0	60	2.7	0	0	---	0.00	30.549 
23:05	14.0	14.0	14.0	61	3.1	0	1	68	0.00	30.544 
23:10	13.8	13.8	13.8	61	2.9	0	0	---	0.00	30.547 
23:15	13.8	13.8	13.8	62	3.2	0	0	---	0.00	30.551 
23:20	13.6	13.6	13.6	62	3.0	0	3	68	0.00	30.552 
23:25	13.6	13.6	13.6	61	2.7	0	2	68	0.00	30.547 
23:30	13.8	13.8	13.8	60	2.5	0	1	68	0.00	30.549 
23:35	13.8	13.8	13.8	59	2.2	0	2	68	0.00	30.544 
23:40	14.0	14.0	14.0	59	2.3	0	1	68	0.00	30.546 
23:45	13.8	13.8	13.8	59	2.2	0	1	68	0.00	30.551 
23:50	13.6	13.6	13.6	60	2.3	0	1	68	0.00	30.550 
23:55	13.5	13.5	13.5	60	2.2	0	0	---	0.00	30.548 

CoCoRaHS
IN-AL-39
A2 Web Hosting
Creative Commons License
GoDaddy
search engine by freefind advanced

loaded 2018-11-12 19:21:13 • last modified 2010-11-18 10:43:29
Privacy PolicyDisclaimer
• wx.awcolley.com is powered by PmWiki v.2002016 •
• all content (unless otherwise noted) © 2018 A W Colley